Regional Weather Roundup
Issued by NWS Cleveland, OH

Home | Current Version | Previous Version | Text Only | Print | Product List | Glossary On
Versions: 1 2 3 4 5 6 7 8 9 10 11 12 13 14 15 16 17 18 19 20 21 22 23 24 25 26 27 28 29 30 31 32 33 34 35 36 37 38 39 40 41 42 43 44 45 46 47 48 49 50
000
ASUS41 KCLE 251612
RWRCLE
OHIO REGIONAL WEATHER ROUNDUP
NATIONAL WEATHER SERVICE WILMINGTON, OH
1200 PM EDT MON JUL 25 2016

NOTE: "FAIR" INDICATES FEW OR NO CLOUDS BELOW 12,000 FEET WITH NO
SIGNIFICANT WEATHER AND/OR OBSTRUCTIONS TO VISIBILITY.

OHZ001>008-015>018-024>027-034-035-043-044-251700-
   NORTHWEST OHIO

CITY           SKY/WX    TMP DP  RH WIND       PRES   REMARKS
DEFIANCE       FAIR      81  68  64 SW7       29.98F
FINDLAY        FAIR      82  67  60 SW9       29.99S
TOLEDO EXPRESS CLOUDY    79  71  76 SW13      29.97S
TOLEDO EXEC    FAIR      82  70  66 W12       29.97S
LIMA           FAIR      79  68  69 W9        30.02S
$$

OHZ009>014-019>023-028>033-038-089-251700-
   NORTHEAST OHIO

CITY           SKY/WX    TMP DP  RH WIND       PRES   REMARKS
CLE-HOPKINS    PTSUNNY   85  67  54 W13       29.99R
CLE-LAKEFRONT  PTSUNNY   82  71  69 W13       29.95R
CUY CO. ARPT   NOT AVBL
LORAIN-ELYRIA  FAIR      80  69  69 NW8       29.98S
ASHTABULA      CLOUDY    80  73  79 W17G23    29.96R
AKRON-CANTON   PTSUNNY   85  73  67 NW12      29.99R HX  91
WOOSTER        CLOUDY    83  71  67 NW12      30.00R
MANSFIELD      PTSUNNY   82  70  66 W6        30.02R
YOUNGSTOWN     CLOUDY    86  73  65 SW8       29.96S HX  93
$$

OHZ042-051>053-060>062-070>072-077>081-251700-
  SOUTHWEST OHIO

CITY           SKY/WX    TMP DP  RH WIND       PRES   REMARKS
CINC-COVINGTON PTSUNNY   90  75  61 W10       30.03R HX 100
CINC-LUNKEN    FAIR      90  76  63 SW10      30.00S HX 101
HAMILTON       FAIR      88  74  63 NW8       30.02S HX  96
DAYTON         PTSUNNY   85  68  56 W10       30.04R
WRIGHT-PAT AFB FAIR      86  69  56 SW8       30.01F
DAYTON GENERAL FAIR      87  64  46 NW8       30.03R
WILMINGTON     FAIR      87  74  64 W12       30.02S HX  95
$$

OHZ036-037-039>041-045>050-054>059-063>069-073>076-082>088-251700-
  CENTRAL AND SOUTHEAST OHIO

CITY           SKY/WX    TMP DP  RH WIND       PRES   REMARKS
COLUMBUS       PTSUNNY   89  68  49 W10       29.99S HX  93
OSU AIRPORT    FAIR      87  71  58 W8        30.00S HX  93
BOLTON FIELD   SUNNY     88  72  58 W8        30.01S HX  94
RICKENBACK AFB FAIR      89  74  61 SW7       29.99S HX  97
NEWARK         FAIR      91  72  53 W10       29.99S HX  98
MARION         FAIR      84  67  56 NW7       30.02R
LANCASTER      FAIR      89  77  67 W12       30.01R HX 101
ZANESVILLE     FAIR      94  73  50 W13       29.99S HX 103
NEW PHILLY     PTSUNNY   91  72  53 SW8       29.98S HX  98
$$



USA.gov is the U.S. government's official web portal to all federal, state and local government web resources and services.